DateTimeUTC,F1_A11,F1_S11,BsB_S11,BsG_S11,BsR_S11,BbsB_S11,BbsG_S11,BbsR_S11,BaB_A11,BaG_A11,BaR_A11,Tu_S11,T_S11,Uu_S11,U_S11,P_S11,T1_A11
2021-08-13T17:00:00Z,00000200,20000000,,,,,,,0000.03,-000.21,-000.02,18.4,24.9,11.8,07.9,0673.4,30.9
2021-08-13T17:01:00Z,00000200,20000000,,,,,,,0000.23,0000.19,-000.00,18.4,24.9,11.8,07.9,0673.4,30.9
2021-08-13T17:02:00Z,00000200,20000000,,,,,,,0000.01,0000.06,-000.14,18.4,24.9,11.8,07.9,0673.4,30.9
2021-08-13T17:03:00Z,00000200,60000000,,,,,,,0009.71,0009.45,0007.57,18.4,24.9,11.8,07.9,0673.4,30.9
2021-08-13T17:04:00Z,00000200,40000000,0052.13,0043.89,0032.19,0005.98,0004.73,0003.83,0014.13,0012.81,0010.50,18.5,24.7,11.9,08.2,0674.4,30.9
2021-08-13T17:05:00Z,00000200,00000000,0052.35,0045.19,0032.80,0005.73,0005.06,0003.92,0013.61,0012.86,0010.38,18.5,24.7,12.0,08.2,0674.4,30.9
2021-08-13T17:06:00Z,00000200,00000000,0053.85,0046.32,0034.16,0006.12,0005.06,0004.09,0013.83,0012.90,0010.31,18.5,24.7,12.0,08.3,0674.4,30.9
2021-08-13T17:07:00Z,00000200,00000000,0055.87,0048.52,0035.31,0006.73,0005.38,0004.12,0014.64,0013.50,0011.13,18.6,24.6,12.0,08.3,0674.4,30.9
2021-08-13T17:08:00Z,00000200,00000000,0060.92,0052.21,0038.08,0006.70,0005.74,0004.44,0015.13,0014.30,0011.62,18.5,24.7,11.9,08.2,0674.2,30.9
2021-08-13T17:09:00Z,00000200,00000000,0062.40,0053.33,0039.13,0006.79,0005.72,0004.71,0016.25,0014.95,0012.29,18.6,24.6,11.8,08.2,0674.2,30.9
2021-08-13T17:10:00Z,00000200,00000000,0063.51,0053.62,0040.15,0007.20,0005.93,0004.63,0015.93,0015.26,0011.87,18.6,24.6,11.8,08.2,0674.2,30.9
2021-08-13T17:11:00Z,00000200,00000000,0064.17,0054.58,0039.49,0007.17,0005.73,0004.55,0016.28,0015.07,0012.72,18.6,24.6,11.9,08.2,0674.2,30.8
2021-08-13T17:12:00Z,00000200,00000000,0063.02,0054.66,0041.28,0007.56,0006.07,0004.97,0016.42,0015.55,0012.00,18.6,24.6,12.0,08.3,0674.3,30.8
2021-08-13T17:13:00Z,00000200,00000000,0062.80,0055.02,0039.50,0007.14,0006.06,0004.86,0016.59,0015.06,0012.81,18.6,24.7,11.9,08.2,0674.3,30.9
2021-08-13T17:14:00Z,00000200,00000000,0063.28,0056.12,0041.56,0007.28,0005.98,0004.60,0016.27,0015.38,0012.35,18.7,24.7,11.9,08.3,0674.4,30.9
2021-08-13T17:15:00Z,00000200,00000000,0061.65,0055.17,0039.98,0007.34,0005.81,0004.72,0016.22,0015.16,0012.18,18.7,24.7,11.9,08.2,0674.4,30.9
2021-08-13T17:16:00Z,00000200,00000000,0062.83,0055.36,0040.21,0006.98,0006.16,0004.58,0016.08,0014.94,0011.90,18.7,24.7,11.9,08.3,0674.4,30.9
2021-08-13T17:17:00Z,00000200,00000000,0063.14,0054.88,0039.80,0007.00,0006.13,0004.44,0016.08,0015.15,0012.43,18.8,24.7,11.8,08.2,0674.4,30.9
2021-08-13T17:18:00Z,00000200,00000000,0063.31,0055.13,0040.08,0007.24,0005.95,0005.12,0016.46,0014.97,0012.50,18.8,24.8,11.7,08.1,0674.4,30.9
2021-08-13T17:19:00Z,00000200,00000000,0064.74,0055.15,0040.75,0007.79,0005.93,0005.04,0016.32,0015.75,0012.50,18.8,24.7,11.9,08.2,0674.4,30.9
2021-08-13T17:20:00Z,00000200,00000000,0063.44,0054.65,0040.00,0007.48,0006.07,0004.51,0016.43,0014.96,0012.29,18.7,24.7,11.7,08.1,0674.4,30.9
2021-08-13T17:21:00Z,00000200,00000000,0064.51,0055.76,0041.01,0007.13,0006.07,0004.94,0016.20,0015.32,0012.27,18.7,24.7,11.8,08.2,0674.5,30.9
2021-08-13T17:22:00Z,00000200,00000000,0064.05,0055.25,0041.01,0007.00,0005.60,0004.64,0016.35,0015.14,0012.55,18.7,24.7,11.8,08.2,0674.5,30.9
2021-08-13T17:23:00Z,00000200,00000000,0063.94,0054.94,0040.25,0006.23,0005.69,0004.19,0016.18,0015.29,0012.22,18.7,24.7,11.8,08.2,0674.4,30.9
2021-08-13T17:24:00Z,00000200,00000000,0063.72,0055.35,0040.25,0007.76,0005.99,0004.14,0016.07,0015.08,0012.61,18.7,24.7,11.7,08.1,0674.4,30.9
2021-08-13T17:25:00Z,00000200,00000000,0064.59,0054.95,0040.69,0006.92,0005.42,0004.15,0016.41,0015.26,0012.22,18.7,24.7,11.7,08.1,0674.5,30.9
2021-08-13T17:26:00Z,00000200,00000000,0063.83,0056.14,0040.91,0007.29,0005.81,0005.12,0016.63,0015.34,0012.44,18.7,24.7,11.7,08.1,0674.4,30.9
2021-08-13T17:27:00Z,00000200,00000000,0063.37,0054.27,0040.43,0006.81,0005.95,0004.61,0016.41,0015.59,0012.44,18.7,24.7,11.8,08.2,0674.4,30.9
2021-08-13T17:28:00Z,00000200,00000000,0064.26,0054.79,0040.78,0007.43,0005.90,0004.83,0015.76,0014.65,0012.35,18.7,24.7,11.8,08.2,0674.4,30.9
2021-08-13T17:29:00Z,00000200,00000000,0064.55,0054.35,0040.08,0006.63,0005.93,0004.81,0015.93,0015.17,0012.06,18.7,24.7,11.9,08.2,0674.5,30.9
2021-08-13T17:30:00Z,00000200,00000000,0063.72,0055.61,0040.92,0007.73,0005.67,0004.78,0016.52,0014.84,0011.88,18.7,24.7,11.8,08.2,0674.4,30.9
2021-08-13T17:31:00Z,00000200,00000000,0064.69,0054.66,0040.68,0007.71,0005.94,0004.98,0016.66,0015.90,0012.99,18.7,24.7,11.7,08.1,0674.3,30.9
2021-08-13T17:32:00Z,00000200,00000000,0063.33,0055.98,0040.49,0007.64,0006.00,0004.70,0016.46,0015.74,0012.65,18.7,24.7,11.8,08.2,0674.4,30.9
2021-08-13T17:33:00Z,00000200,00000000,0065.12,0056.76,0041.58,0007.36,0006.34,0004.89,0016.43,0015.52,0012.64,18.7,24.7,11.7,08.1,0674.4,30.9
2021-08-13T17:34:00Z,00000200,00000000,0065.51,0056.68,0042.52,0007.29,0005.80,0004.43,0017.13,0015.50,0012.76,18.7,24.7,11.8,08.2,0674.5,30.9
2021-08-13T17:35:00Z,00000200,00000000,0066.68,0057.42,0041.54,0007.44,0006.19,0004.95,0016.77,0015.61,0012.89,18.7,24.7,11.9,08.3,0674.4,30.9
2021-08-13T17:36:00Z,00000200,00000000,0065.05,0056.28,0041.61,0007.40,0006.39,0005.00,0016.77,0015.67,0012.61,18.7,24.7,11.9,08.3,0674.5,30.9
2021-08-13T17:37:00Z,00000200,00000000,0066.40,0057.58,0041.74,0007.56,0006.30,0004.98,0016.37,0015.71,0012.59,18.7,24.7,11.9,08.2,0674.5,30.9
2021-08-13T17:38:00Z,00000200,00000000,0066.62,0056.51,0041.70,0007.64,0006.10,0004.48,0017.03,0015.60,0012.67,18.7,24.7,11.9,08.3,0674.4,30.9
2021-08-13T17:39:00Z,00000200,00000000,0065.66,0056.51,0042.38,0007.84,0006.05,0004.43,0016.55,0015.54,0012.59,18.7,24.7,11.8,08.2,0674.4,30.9
2021-08-13T17:40:00Z,00000200,00000000,0064.47,0057.24,0042.13,0006.66,0006.43,0005.04,0016.89,0015.81,0012.85,18.7,24.7,11.8,08.2,0674.3,30.9
2021-08-13T17:41:00Z,00000200,00000000,0065.88,0057.03,0042.35,0007.07,0005.93,0004.99,0016.50,0015.86,0012.80,18.7,24.7,11.9,08.2,0674.3,30.9
2021-08-13T17:42:00Z,00000200,00000000,0067.53,0058.04,0042.81,0007.12,0006.07,0004.94,0017.28,0015.73,0013.24,18.7,24.7,11.9,08.2,0674.4,30.9
2021-08-13T17:43:00Z,00000200,00000000,0067.01,0057.99,0042.22,0007.83,0006.28,0005.24,0016.76,0015.67,0012.51,18.7,24.7,11.8,08.2,0674.4,30.9
2021-08-13T17:44:00Z,00000200,00000000,0066.14,0058.17,0042.51,0007.65,0006.39,0005.02,0017.10,0015.62,0012.79,18.7,24.7,12.0,08.3,0674.3,30.9
2021-08-13T17:45:00Z,00000200,00000000,0066.68,0057.36,0041.45,0007.70,0005.77,0005.17,0016.94,0015.91,0012.91,18.6,24.7,12.0,08.3,0674.3,30.9
2021-08-13T17:46:00Z,00000200,00000000,0067.56,0057.74,0042.81,0007.73,0006.20,0004.84,0016.48,0015.66,0012.87,18.7,24.7,12.1,08.4,0674.4,30.9
2021-08-13T17:47:00Z,00000200,00000000,0066.01,0056.63,0041.80,0007.22,0006.06,0005.08,0016.54,0015.66,0012.67,18.7,24.7,12.1,08.4,0674.4,30.9
2021-08-13T17:48:00Z,00000200,00000000,0064.97,0057.12,0041.70,0007.53,0006.40,0004.60,0016.40,0015.05,0012.48,18.7,24.7,12.0,08.3,0674.3,30.9
2021-08-13T17:49:00Z,00000200,00000000,0066.89,0056.73,0041.62,0007.65,0006.47,0004.60,0016.39,0015.74,0012.30,18.7,24.7,11.9,08.3,0674.3,30.9
2021-08-13T17:50:00Z,00000200,00000000,0063.87,0055.87,0040.97,0007.43,0006.32,0004.87,0016.69,0015.15,0012.68,18.7,24.7,11.9,08.2,0674.2,30.9
2021-08-13T17:51:00Z,00000200,00000000,0065.59,0056.92,0041.57,0006.91,0005.91,0004.70,0016.42,0015.48,0012.37,18.7,24.7,11.9,08.2,0674.3,30.9
2021-08-13T17:52:00Z,00000200,00000000,0064.48,0056.83,0041.08,0007.93,0006.22,0004.79,0015.92,0015.38,0012.45,18.7,24.7,12.0,08.3,0674.3,30.9
2021-08-13T17:53:00Z,00000200,00000000,0065.32,0056.41,0041.42,0007.08,0006.11,0004.80,0016.76,0015.30,0012.51,18.6,24.7,12.0,08.3,0674.3,30.9
2021-08-13T17:54:00Z,00000200,00000000,0064.44,0056.99,0041.85,0007.41,0006.19,0004.81,0016.47,0015.22,0012.43,18.6,24.7,11.9,08.2,0674.4,30.9
2021-08-13T17:55:00Z,00000200,00000000,0064.09,0055.93,0041.14,0008.11,0006.48,0004.89,0016.50,0015.18,0012.38,18.7,24.6,11.9,08.3,0674.2,30.9
2021-08-13T17:56:00Z,00000200,00000000,0065.98,0056.35,0042.51,0006.22,0006.12,0004.84,0016.23,0015.43,0012.58,18.6,24.7,11.9,08.3,0674.3,30.9
2021-08-13T17:57:00Z,00000200,40000000,,,,,,,0004.96,0004.78,0003.87,18.7,24.7,12.6,08.7,0674.4,30.9
2021-08-13T17:58:00Z,00000200,60000000,,,,,,,-000.07,-000.16,-000.10,18.4,24.8,12.1,08.1,0673.5,30.9
2021-08-13T17:59:00Z,00000200,20000000,,,,,,,0000.10,-000.00,0000.07,18.4,24.9,12.1,08.1,0673.4,30.9
